Location: Limerick
(52.6650°N, 8.6230°W)
Time: 19:48:40
(UTC+01:00)

ISS - Pass Details

Date: 18 July 2017
Orbit: 400 x 408 km, 51.6° (Epoch: 21 July)

Event Time Altitude Azimuth Distance (km) Brightness Sun altitude
Exits shadow 02:01:38 31° 134° (SE) 734 -2.9 -16.2°
Drops below altitude 10° 02:04:06 10° 89° (E) 1,457 -0.9 -16.1°
Sets 02:06:18 0° 79° (E) 2,320 0.2 -16.1°
